Weather History for Northway, AK

Change the Weather History Date:

Friday, December 28, 2012

  Actual Average Record
Temperature  
Mean Temperature -14 °F -  
Max Temperature -9 °F -8 °F 15 °F (1985)
Min Temperature -20 °F -24 °F -62 °F (1964)
Degree Days  
Heating Degree Days 80    
Moisture  
Dew Point -21 °F    
Average Humidity 75    
Maximum Humidity 79    
Minimum Humidity 70    
Precipitation  
Precipitation 0.00 in - - ()
Snow  
Snow 0.00 in - - ()
Snow Depth 12.00 in    
Sea Level Pressure  
Sea Level Pressure 29.94 in    
Wind  
Wind Speed 0 mph (North)    
Max Wind Speed 0 mph    
Max Gust Speed -    
Visibility 9 miles    
Events Snow    
Averages and records for this station are not official NWS values.
T = Trace of Precipitation, MM = Missing Value Source: NWS Daily Summary

Daily Weather History Graph

Daily Weather History Graph

Search for Another Location

Airport:

Trip Planner

Search our weather history database for the weather conditions in past years. The results will help you decide how hot, cold, wet, or windy it might be!

Date:

Astronomy

Dec. 28, 2012 Rise Set
Actual Time 10:04 AM AKST 2:55 PM AKST
Civil Twilight 8:54 AM AKST 4:05 PM AKST
Nautical Twilight 7:49 AM AKST 5:09 PM AKST
Astronomical Twilight 6:52 AM AKST 6:06 PM AKST
Moon 4:11 PM AKST (12/28) 9:36 AM AKST (12/28)
Length of Visible Light 7h 10m
Length of Day
4h 50m
Full, 100% of the Moon is Illuminated
Dec 28
Full
Jan 4
Last Quarter
Jan 11
New
Jan 18
First Quarter
Jan 26
Full

Hourly Weather History & Observations

Time (AKST) Temp. Dew Point Humidity Pressure Visibility Wind Dir Wind Speed Gust Speed Precip Events Conditions
12:53 AM -20.9 °F -26.0 °F 77% 29.89 in 10.0 mi Calm Calm - N/A   Mostly Cloudy
1:53 AM -18.9 °F -25.1 °F 74% 29.89 in 10.0 mi Calm Calm - N/A   Mostly Cloudy
3:53 AM -16.1 °F -22.0 °F 74% 29.91 in 10.0 mi Calm Calm - N/A   Mostly Cloudy
4:53 AM -15.0 °F -20.9 °F 75% 29.91 in 4.0 mi Calm Calm - N/A Snow Light Snow
5:30 AM -14.8 °F -20.2 °F 77% 29.65 in 2.0 mi Calm Calm - N/A Snow Light Snow
5:53 AM -14.1 °F -20.0 °F 75% 29.91 in 1.8 mi Calm Calm - N/A Snow Light Snow
6:53 AM -13.0 °F -18.9 °F 75% 29.92 in 1.8 mi Calm Calm - N/A Snow Light Snow
7:28 AM -11.2 °F -18.4 °F 70% 29.65 in 8.0 mi Calm Calm - N/A Snow Light Snow
7:53 AM -11.9 °F -18.0 °F 74% 29.92 in 9.0 mi Calm Calm - N/A Snow Light Snow
8:53 AM -9.9 °F -16.1 °F 74% 29.93 in 9.0 mi Calm Calm - N/A Snow Light Snow
9:53 AM -9.9 °F -16.1 °F 74% 29.94 in 10.0 mi Calm Calm - N/A   Mostly Cloudy
10:53 AM -9.9 °F -16.1 °F 74% 29.96 in 10.0 mi Calm Calm - N/A   Mostly Cloudy
11:53 AM -9.9 °F -16.1 °F 74% 29.97 in 10.0 mi Calm Calm - N/A   Scattered Clouds
12:53 PM -9.9 °F -15.0 °F 78% 29.98 in 10.0 mi Calm Calm - N/A   Scattered Clouds
1:53 PM -9.9 °F -16.1 °F 74% 29.99 in 10.0 mi Calm Calm - N/A   Scattered Clouds
2:53 PM -14.1 °F -18.9 °F 79% 30.00 in 10.0 mi Calm Calm - N/A   Partly Cloudy
3:53 PM -16.1 °F -22.0 °F 74% 30.01 in 10.0 mi Calm Calm - N/A   Partly Cloudy
4:53 PM -18.9 °F -24.0 °F 78% 30.02 in 10.0 mi Calm Calm - N/A   Partly Cloudy
5:53 PM -20.9 °F -26.0 °F 77% 30.02 in 10.0 mi Calm Calm - N/A   Partly Cloudy
6:53 PM -20.9 °F -27.0 °F 73% 30.02 in 10.0 mi Calm Calm - N/A   Partly Cloudy
7:53 PM -20.0 °F -26.0 °F 74% 30.02 in 10.0 mi Calm Calm - N/A   Scattered Clouds
8:53 PM -20.0 °F -25.1 °F 78% 30.01 in 10.0 mi Calm Calm - N/A   Scattered Clouds
9:53 PM -18.0 °F -24.0 °F 74% 30.01 in 10.0 mi Calm Calm - N/A   Scattered Clouds
10:53 PM -18.0 °F -23.1 °F 78% 30.01 in 10.0 mi Calm Calm - N/A   Scattered Clouds
11:53 PM -18.9 °F -24.0 °F 78% 30.01 in 10.0 mi Calm Calm - N/A   Scattered Clouds